[Date Prev][Date Next][Thread Prev][Thread Next] - [Date Index][Thread Index][Author Index]
2 Line ISS Keps 5-23
- Subject: [sarex] 2 Line ISS Keps 5-23
- From: "Dave Larsen PhD" <doc@xxxxxxxxxxx>
- Date: Fri, 23 May 2003 03:13:08 -0700
ISS
1 25544U 98067A 03143.12044109 .00011138 00000-0 14418-3 0 370
2 25544 51.6306 146.2027 0005838 141.7428 346.5772 15.59433524257094
----
Via the sarex mailing list at AMSAT.ORG courtesy of AMSAT-NA.
To unsubscribe, send "unsubscribe sarex" to Majordomo@amsat.org
AMSAT Home